X  Close Clear throughout the day.
Conditions Temperature Feels Precipitation Wind Wind Direction UV index Pressure
12:00 clear-day Clear 25° - 12-12 km/h West West uv-10 1014,5
13:00 clear-day Clear 27° - 12-14 km/h NE NE uv-10 1013,5
14:00 clear-day Clear 28° - 10-16 km/h NNW NNW uv-9 1012,3
15:00 clear-day Clear 30° - 9-16 km/h NW NW uv-7 1011,5
16:00 clear-day Clear 30° - 10-15 km/h WNW WNW uv-5 1010,7
17:00 clear-day Clear 30° - 10-13 km/h NW NW uv-2 1010,5
18:00 clear-day Clear 29° - 10-11 km/h NE NE uv-1 1010,2
19:00 clear-day Clear 27° - 9-9 km/h SSW SSW - 1010,8
20:00 clear-night Clear 24° - 7-7 km/h WSW WSW - 1011,4
21:00 clear-night Clear 22° - 5-6 km/h SSW SSW - 1011,9
22:00 clear-night Clear 20° - 5-6 km/h NW NW - 1012,7
23:00 clear-night Clear 18° - 5-7 km/h West West - 1012,7
00:00 clear-night Clear 17° - 5-7 km/h West West - 1012,6
01:00 clear-night Clear 16° - 5-6 km/h NW NW - 1011,9
02:00 clear-night Clear 15° - 5-6 km/h WNW WNW - 1011,6
03:00 clear-night Clear 14° - 5-5 km/h WNW WNW - 1011,3
04:00 clear-night Clear 12° - 5-5 km/h WNW WNW - 1011,5
05:00 clear-night Clear 12° - 5-5 km/h WNW WNW - 1011,6
06:00 clear-day Clear 13° - 5-6 km/h NW NW - 1012,0
07:00 clear-day Clear 15° - 4-6 km/h NW NW - 1012,2
08:00 clear-day Clear 19° - 5-8 km/h NNW NNW uv-2 1012,4
09:00 clear-day Clear 22° - 6-10 km/h NNW NNW uv-4 1012,0
10:00 clear-day Clear 25° - 8-14 km/h WNW WNW uv-7 1011,8
11:00 clear-day Clear 27° - 10-18 km/h West West uv-9 1011,4
12:00 clear-day Clear 29° - 12-22 km/h West West uv-11 1010,6
13:00 clear-day Clear 31° - 14-26 km/h WNW WNW uv-11 1009,8
14:00 clear-day Clear 33° - 16-30 km/h West West uv-10 1008,9
15:00 clear-day Clear 33° - 17-33 km/h West West uv-7 1008,4
16:00 clear-day Clear 33° - 17-36 km/h West West uv-5 1008,0
17:00 clear-day Clear 32° - 17-37 km/h West West uv-2 1008,0
18:00 clear-day Clear 31° - 15-37 km/h West West uv-1 1008,4
19:00 partly-cloudy-day Partly Cloudy 29° - 13-35 km/h West West - 1009,3
20:00 partly-cloudy-night Partly Cloudy 27° - 9-33 km/h West West - 1010,3
21:00 cloudy Overcast 25° - 8-32 km/h WNW WNW - 1011,0
22:00 cloudy Overcast 23° - 7-30 km/h WSW WSW - 1011,6
23:00 cloudy Overcast 22° - 7-26 km/h WSW WSW - 1012,6
00:00 partly-cloudy-night Mostly Cloudy 20° - 7-21 km/h WSW WSW - 1012,9
01:00 partly-cloudy-night Mostly Cloudy 18° - 7-15 km/h SSW SSW - 1013,0
02:00 cloudy Overcast 16° - 5-11 km/h SSW SSW - 1013,3
03:00 cloudy Overcast 15° - 4-8 km/h SSW SSW - 1013,7
04:00 cloudy Overcast 13° - 4-8 km/h SW SW - 1013,4
05:00 cloudy Overcast 13° - 3-7 km/h West West - 1013,9
06:00 partly-cloudy-day Partly Cloudy 13° - 3-6 km/h West West - 1014,5
07:00 partly-cloudy-day Mostly Cloudy 15° - 2-5 km/h NW NW - 1015,2
08:00 partly-cloudy-day Partly Cloudy 18° - 2-5 km/h North North uv-1 1015,9
09:00 clear-day Clear 20° - 2-6 km/h NNE NNE uv-4 1016,0
10:00 clear-day Clear 22° - 4-9 km/h NE NE uv-6 1016,1
11:00 clear-day Clear 24° - 4-11 km/h ENE ENE uv-9 1015,6
12:00 clear-day Clear 26° - 4-12 km/h ENE ENE uv-9 1015,2